Flag for Denmark Weather past 2 weeks in Hirtshals, Denmark

Now
56 °F

Passing clouds.


Feels Like: 53 °F
Forecast: 56 / 62 °F
Wind: 13 mph from West

Location: Aalborg

Current Time: Aug 21, 2014 at 12:25:30 AM

Latest Report: Aug 20, 2014 at 11:00 PM


Visibility: 9 mi

Pressure: 29.69 "Hg

Humidity: 82%

Dew point: 51 °F

Location of HirtshalsLocation

Historic Weather in Hirtshals — Graph

°F

Hirtshals temperature yesterday

Maximum temperature yesterday: 63 °F (at 12:00 PM)
Minimum temperature yesterday: 56 °F (at 11:00 PM)
Average temperature yesterday: 59 °F

Past Weeks' High & Low Weather Summary

 TemperatureHumidityPressure
High76 °F (Aug 8, 4:00 PM)98% (Aug 8, 7:00 AM)30.03 "Hg (Aug 8, 7:00 AM)
Low52 °F (Aug 18, 4:00 AM)43% (Aug 6, 5:00 PM)29.26 "Hg (Aug 18, 7:00 AM)
Average63 °F78%29.65 "Hg
* Reported Aug 5 11:00 PM — Aug 20 11:00 PM, Hirtshals, Weather by CustomWeather, © 2014

Note: Actual official high and low records may vary slightly from our data, if they occured in-between our weather recording intervals... More about our weather records

Advertising

Hirtshals weather history for previous 24 hours

 ConditionsComfort  
Time TempWeatherWind HumidityBarometerVisibility
11:00 PM
Aug 20
56 °FPassing clouds.13 mph82%29.69 "Hg9 mi
10:00 PM56 °FCool.23 mph86%29.68 "HgN/A
9:00 PM57 °FCool.20 mph83%29.67 "HgN/A
8:00 PM58 °FScattered clouds.21 mph76%29.66 "Hg12 mi
7:00 PM60 °FCool.21 mph74%29.66 "HgN/A
6:00 PM62 °FCool.21 mph65%29.65 "HgN/A
5:00 PM61 °FSprinkles. Partly sunny.20 mph79%29.64 "Hg12 mi
4:00 PM61 °FCool.26 mph73%29.63 "HgN/A
3:00 PM62 °FCool.26 mph70%29.62 "HgN/A
2:00 PM61 °FSprinkles. Partly sunny.17 mph78%29.61 "Hg12 mi
1:00 PM62 °FCool.26 mph78%29.59 "HgN/A
12:00 PM63 °FMild.23 mph76%29.57 "HgN/A
11:00 AM62 °FScattered clouds.21 mph75%29.56 "Hg12 mi
10:00 AM61 °FCool.21 mph74%29.54 "HgN/A
9:00 AM59 °FCool.18 mph81%29.50 "HgN/A
8:00 AM59 °FScattered clouds.20 mph78%29.50 "Hg12 mi
7:00 AM58 °FCool.16 mph84%29.47 "HgN/A
6:00 AM57 °FCool.17 mph89%29.47 "HgN/A
5:00 AM57 °FOvercast.21 mph88%29.47 "Hg12 mi
4:00 AM57 °FCool.21 mph89%29.47 "HgN/A
3:00 AM58 °FCool.16 mph84%29.47 "HgN/A
2:00 AM58 °FOvercast.15 mph86%29.47 "Hg12 mi
1:00 AM58 °FCool.16 mph91%29.47 "HgN/A
12:00 AM58 °FCool.22 mph89%29.47 "HgN/A
Weather by CustomWeather, © 2014

See weather overviewHow to use our weather pages